Year,Month,Day,Hour,Minute,Value (Times are PST for temperature in C)
2018,04,22,00,00,8.00
2018,04,22,00,01,8.00
2018,04,22,00,02,8.00
2018,04,22,00,03,8.00
2018,04,22,00,04,8.00
2018,04,22,00,05,7.90
2018,04,22,00,06,7.90
2018,04,22,00,07,7.90
2018,04,22,00,08,7.90
2018,04,22,00,09,7.90
2018,04,22,00,10,7.90
2018,04,22,00,11,7.90
2018,04,22,00,12,7.90
2018,04,22,00,13,7.90
2018,04,22,00,14,7.90
2018,04,22,00,15,7.90
2018,04,22,00,16,7.90
2018,04,22,00,17,7.90
2018,04,22,00,18,7.80
2018,04,22,00,19,7.80
2018,04,22,00,20,7.80
2018,04,22,00,21,7.80
2018,04,22,00,22,7.80
2018,04,22,00,23,7.80
2018,04,22,00,24,7.80
2018,04,22,00,25,7.80
2018,04,22,00,26,7.80
2018,04,22,00,27,7.80
2018,04,22,00,28,7.80
2018,04,22,00,29,7.80
2018,04,22,00,30,7.80
2018,04,22,00,31,7.80
2018,04,22,00,32,7.80
2018,04,22,00,33,7.80
2018,04,22,00,34,7.70
2018,04,22,00,35,7.70
2018,04,22,00,36,7.70
2018,04,22,00,37,7.70
2018,04,22,00,38,7.70
2018,04,22,00,39,7.70
2018,04,22,00,40,7.70
2018,04,22,00,41,7.70
2018,04,22,00,42,7.70
2018,04,22,00,43,7.70
2018,04,22,00,44,7.70
2018,04,22,00,45,7.70
2018,04,22,00,46,7.70
2018,04,22,00,47,7.60
2018,04,22,00,48,7.60
2018,04,22,00,49,7.60
2018,04,22,00,50,7.60
2018,04,22,00,51,7.60
2018,04,22,00,52,7.60
2018,04,22,00,53,7.60
2018,04,22,00,54,7.60
2018,04,22,00,55,7.60
2018,04,22,00,56,7.60
2018,04,22,00,57,7.60
2018,04,22,00,58,7.60
2018,04,22,00,59,7.60
2018,04,22,01,00,7.60
2018,04,22,01,01,7.50
2018,04,22,01,02,7.50
2018,04,22,01,03,7.50
2018,04,22,01,04,7.50
2018,04,22,01,05,7.50
2018,04,22,01,06,7.50
2018,04,22,01,07,7.50
2018,04,22,01,08,7.40
2018,04,22,01,09,7.40
2018,04,22,01,10,7.40
2018,04,22,01,11,7.40
2018,04,22,01,12,7.40
2018,04,22,01,13,7.40
2018,04,22,01,14,7.40
2018,04,22,01,15,7.40
2018,04,22,01,16,7.40
2018,04,22,01,17,7.40
2018,04,22,01,18,7.40
2018,04,22,01,19,7.40
2018,04,22,01,20,7.40
2018,04,22,01,21,7.40
2018,04,22,01,22,7.30
2018,04,22,01,23,7.30
2018,04,22,01,24,7.30
2018,04,22,01,25,7.30
2018,04,22,01,26,7.30
2018,04,22,01,27,7.30
2018,04,22,01,28,7.30
2018,04,22,01,29,7.20
2018,04,22,01,30,7.20
2018,04,22,01,31,7.20
2018,04,22,01,32,7.20
2018,04,22,01,33,7.20
2018,04,22,01,34,7.20
2018,04,22,01,35,7.20
2018,04,22,01,36,7.10
2018,04,22,01,37,7.10
2018,04,22,01,38,7.10
2018,04,22,01,39,7.10
2018,04,22,01,40,7.10
2018,04,22,01,41,7.10
2018,04,22,01,42,7.10
2018,04,22,01,43,7.10
2018,04,22,01,44,7.10
2018,04,22,01,45,7.10
2018,04,22,01,46,7.00
2018,04,22,01,47,7.00
2018,04,22,01,48,7.00
2018,04,22,01,49,7.00
2018,04,22,01,50,6.90
2018,04,22,01,51,6.90
2018,04,22,01,52,6.90
2018,04,22,01,53,6.90
2018,04,22,01,54,6.90
2018,04,22,01,55,6.90
2018,04,22,01,56,6.90
2018,04,22,01,57,6.80
2018,04,22,01,58,6.80
2018,04,22,01,59,6.80
2018,04,22,02,00,6.80
2018,04,22,02,01,6.80
2018,04,22,02,02,6.80
2018,04,22,02,03,6.80
2018,04,22,02,04,6.80
2018,04,22,02,05,6.80
2018,04,22,02,06,6.80
2018,04,22,02,07,6.80
2018,04,22,02,08,6.80
2018,04,22,02,09,6.80
2018,04,22,02,10,6.80
2018,04,22,02,11,6.80
2018,04,22,02,12,6.70
2018,04,22,02,13,6.70
2018,04,22,02,14,6.70
2018,04,22,02,15,6.70
2018,04,22,02,16,6.70
2018,04,22,02,17,6.70
2018,04,22,02,18,6.70
2018,04,22,02,19,6.70
2018,04,22,02,20,6.60
2018,04,22,02,21,6.60
2018,04,22,02,22,6.60
2018,04,22,02,23,6.60
2018,04,22,02,24,6.60
2018,04,22,02,25,6.60
2018,04,22,02,26,6.50
2018,04,22,02,27,6.50
2018,04,22,02,28,6.50
2018,04,22,02,29,6.40
2018,04,22,02,30,6.40
2018,04,22,02,31,6.40
2018,04,22,02,32,6.40
2018,04,22,02,33,6.30
2018,04,22,02,34,6.30
2018,04,22,02,35,6.30
2018,04,22,02,36,6.30
2018,04,22,02,37,6.30
2018,04,22,02,38,6.30
2018,04,22,02,39,6.20
2018,04,22,02,40,6.20
2018,04,22,02,41,6.20
2018,04,22,02,42,6.20
2018,04,22,02,43,6.20
2018,04,22,02,44,6.20
2018,04,22,02,45,6.10
2018,04,22,02,46,6.10
2018,04,22,02,47,6.10
2018,04,22,02,48,6.10
2018,04,22,02,49,6.10
2018,04,22,02,50,6.10
2018,04,22,02,51,6.00
2018,04,22,02,52,6.00
2018,04,22,02,53,6.00
2018,04,22,02,54,5.90
2018,04,22,02,55,5.90
2018,04,22,02,56,5.90
2018,04,22,02,57,5.90
2018,04,22,02,58,5.90
2018,04,22,02,59,5.80
2018,04,22,03,00,5.80
2018,04,22,03,01,5.80
2018,04,22,03,02,5.80
2018,04,22,03,03,5.80
2018,04,22,03,04,5.80
2018,04,22,03,05,5.80
2018,04,22,03,06,5.70
2018,04,22,03,07,5.70
2018,04,22,03,08,5.70
2018,04,22,03,09,5.70
2018,04,22,03,10,5.60
2018,04,22,03,11,5.60
2018,04,22,03,12,5.60
2018,04,22,03,13,5.50
2018,04,22,03,14,5.50
2018,04,22,03,15,5.50
2018,04,22,03,16,5.50
2018,04,22,03,17,5.40
2018,04,22,03,18,5.40
2018,04,22,03,19,5.40
2018,04,22,03,20,5.40
2018,04,22,03,21,5.40
2018,04,22,03,22,5.40
2018,04,22,03,23,5.40
2018,04,22,03,24,5.40
2018,04,22,03,25,5.40
2018,04,22,03,26,5.40
2018,04,22,03,27,5.40
2018,04,22,03,28,5.40
2018,04,22,03,29,5.40
2018,04,22,03,30,5.40
2018,04,22,03,31,5.40
2018,04,22,03,32,5.40
2018,04,22,03,33,5.30
2018,04,22,03,34,5.30
2018,04,22,03,35,5.30
2018,04,22,03,36,5.30
2018,04,22,03,37,5.30
2018,04,22,03,38,5.30
2018,04,22,03,39,5.30
2018,04,22,03,40,5.30
2018,04,22,03,41,5.30
2018,04,22,03,42,5.30
2018,04,22,03,43,5.30
2018,04,22,03,44,5.30
2018,04,22,03,45,5.30
2018,04,22,03,46,5.30
2018,04,22,03,47,5.30
2018,04,22,03,48,5.30
2018,04,22,03,49,5.30
2018,04,22,03,50,5.20
2018,04,22,03,51,5.20
2018,04,22,03,52,5.20
2018,04,22,03,53,5.20
2018,04,22,03,54,5.20
2018,04,22,03,55,5.20
2018,04,22,03,56,5.20
2018,04,22,03,57,5.20
2018,04,22,03,58,5.20
2018,04,22,03,59,5.20
2018,04,22,04,00,5.20
2018,04,22,04,01,5.20
2018,04,22,04,02,5.20
2018,04,22,04,03,5.20
2018,04,22,04,04,5.20
2018,04,22,04,05,5.20
2018,04,22,04,06,5.20
2018,04,22,04,07,5.20
2018,04,22,04,08,5.20
2018,04,22,04,09,5.10
2018,04,22,04,10,5.10
2018,04,22,04,11,5.10
2018,04,22,04,12,5.20
2018,04,22,04,13,5.20
2018,04,22,04,14,5.20
2018,04,22,04,15,5.20
2018,04,22,04,16,5.10
2018,04,22,04,17,5.10
2018,04,22,04,18,5.10
2018,04,22,04,19,5.10
2018,04,22,04,20,5.10
2018,04,22,04,21,5.10
2018,04,22,04,22,5.10
2018,04,22,04,23,5.10
2018,04,22,04,24,5.10
2018,04,22,04,25,5.10
2018,04,22,04,26,5.10
2018,04,22,04,27,5.10
2018,04,22,04,28,5.10
2018,04,22,04,29,5.10
2018,04,22,04,30,5.20
2018,04,22,04,31,5.20
2018,04,22,04,32,5.20
2018,04,22,04,33,5.20
2018,04,22,04,34,5.20
2018,04,22,04,35,5.20
2018,04,22,04,36,5.20
2018,04,22,04,37,5.10
2018,04,22,04,38,5.10
2018,04,22,04,39,5.10
2018,04,22,04,40,5.10
2018,04,22,04,41,5.00
2018,04,22,04,42,5.00
2018,04,22,04,43,5.00
2018,04,22,04,44,5.00
2018,04,22,04,45,5.00
2018,04,22,04,46,5.00
2018,04,22,04,47,5.00
2018,04,22,04,48,5.00
2018,04,22,04,49,5.00
2018,04,22,04,50,5.00
2018,04,22,04,51,5.00
2018,04,22,04,52,5.00
2018,04,22,04,53,5.00
2018,04,22,04,54,5.00
2018,04,22,04,55,5.00
2018,04,22,04,56,5.00
2018,04,22,04,57,5.00
2018,04,22,04,58,5.00
2018,04,22,04,59,5.00
2018,04,22,05,00,5.00
2018,04,22,05,01,5.00
2018,04,22,05,02,4.90
2018,04,22,05,03,4.90
2018,04,22,05,04,4.90
2018,04,22,05,05,4.90
2018,04,22,05,06,4.90
2018,04,22,05,07,4.80
2018,04,22,05,08,4.80
2018,04,22,05,09,4.80
2018,04,22,05,10,4.80
2018,04,22,05,11,4.80
2018,04,22,05,12,4.80
2018,04,22,05,13,4.70
2018,04,22,05,14,4.70
2018,04,22,05,15,4.70
2018,04,22,05,16,4.70
2018,04,22,05,17,4.70
2018,04,22,05,18,4.70
2018,04,22,05,19,4.70
2018,04,22,05,20,4.60
2018,04,22,05,21,4.60
2018,04,22,05,22,4.60
2018,04,22,05,23,4.60
2018,04,22,05,24,4.60
2018,04,22,05,25,4.60
2018,04,22,05,26,4.60
2018,04,22,05,27,4.60
2018,04,22,05,28,4.60
2018,04,22,05,29,4.50
2018,04,22,05,30,4.50
2018,04,22,05,31,4.40
2018,04,22,05,32,4.40
2018,04,22,05,33,4.40
2018,04,22,05,34,4.30
2018,04,22,05,35,4.30
2018,04,22,05,36,4.30
2018,04,22,05,37,4.30
2018,04,22,05,38,4.30
2018,04,22,05,39,4.30
2018,04,22,05,40,4.30
2018,04,22,05,41,4.30
2018,04,22,05,42,4.30
2018,04,22,05,43,4.20
2018,04,22,05,44,4.20
2018,04,22,05,45,4.20
2018,04,22,05,46,4.20
2018,04,22,05,47,4.20
2018,04,22,05,48,4.10
2018,04,22,05,49,4.10
2018,04,22,05,50,4.10
2018,04,22,05,51,4.10
2018,04,22,05,52,4.10
2018,04,22,05,53,4.10
2018,04,22,05,54,4.10
2018,04,22,05,55,4.10
2018,04,22,05,56,4.10
2018,04,22,05,57,4.10
2018,04,22,05,58,4.10
2018,04,22,05,59,4.10
2018,04,22,06,00,4.10
2018,04,22,06,01,4.10
2018,04,22,06,02,4.00
2018,04,22,06,03,4.00
2018,04,22,06,04,4.00
2018,04,22,06,05,4.00
2018,04,22,06,06,4.00
2018,04,22,06,07,4.00
2018,04,22,06,08,4.00
2018,04,22,06,09,4.00
2018,04,22,06,10,4.00
2018,04,22,06,11,4.00
2018,04,22,06,12,4.00
2018,04,22,11,00,10.60
2018,04,22,11,01,10.70
2018,04,22,11,02,10.70
2018,04,22,11,03,10.70
2018,04,22,11,04,10.70
2018,04,22,11,05,10.70
2018,04,22,11,06,10.80
2018,04,22,11,07,10.80
2018,04,22,11,08,10.80
2018,04,22,11,09,10.70
2018,04,22,11,10,10.80
2018,04,22,11,11,10.70
2018,04,22,11,12,10.80
2018,04,22,11,13,10.80
2018,04,22,11,14,10.80
2018,04,22,11,15,10.80
2018,04,22,11,16,10.80
2018,04,22,11,17,10.80
2018,04,22,11,18,10.80
2018,04,22,11,19,10.70
2018,04,22,11,20,10.70
2018,04,22,11,21,10.60
2018,04,22,11,22,10.50
2018,04,22,11,23,10.40
2018,04,22,11,24,10.30
2018,04,22,11,25,10.20
2018,04,22,11,26,10.20
2018,04,22,11,27,10.10
2018,04,22,11,28,10.10
2018,04,22,11,29,10.10
2018,04,22,11,30,10.10
2018,04,22,11,31,10.10
2018,04,22,11,32,10.10
2018,04,22,11,33,10.10
2018,04,22,11,34,10.10
2018,04,22,11,35,10.00
2018,04,22,11,36,10.00
2018,04,22,11,37,10.00
2018,04,22,11,38,10.00
2018,04,22,11,39,10.00
2018,04,22,11,40,10.00
2018,04,22,11,41,10.00
2018,04,22,11,42,10.00
2018,04,22,11,43,10.00
2018,04,22,11,44,10.10
2018,04,22,11,45,10.10
2018,04,22,11,46,10.10
2018,04,22,11,47,10.10
2018,04,22,11,48,10.10
2018,04,22,11,49,10.10
2018,04,22,11,50,10.10
2018,04,22,11,51,10.20
2018,04,22,11,52,10.20
2018,04,22,11,53,10.20
2018,04,22,11,54,10.20
2018,04,22,11,55,10.30
2018,04,22,11,56,10.40
2018,04,22,11,57,10.50
2018,04,22,11,58,10.60
2018,04,22,11,59,10.60
2018,04,22,12,00,10.70
2018,04,22,12,01,10.80
2018,04,22,12,02,10.90
2018,04,22,12,03,11.00
2018,04,22,12,04,11.00
2018,04,22,12,05,11.10
2018,04,22,12,06,11.10
2018,04,22,12,07,11.20
2018,04,22,12,08,11.30
2018,04,22,12,09,11.30
2018,04,22,12,10,11.30
2018,04,22,12,11,11.30
2018,04,22,12,12,11.30
2018,04,22,12,13,11.30
2018,04,22,12,14,11.30
2018,04,22,12,15,11.40
2018,04,22,12,16,11.40
2018,04,22,12,17,11.40
2018,04,22,12,18,11.40
2018,04,22,12,19,11.40
2018,04,22,12,20,11.40
2018,04,22,12,21,11.40
2018,04,22,12,22,11.40
2018,04,22,12,23,11.40
2018,04,22,12,24,11.40
2018,04,22,12,25,11.30
2018,04,22,12,26,11.30
2018,04,22,12,27,11.40
2018,04,22,12,28,11.40
2018,04,22,12,29,11.40
2018,04,22,12,30,11.40
2018,04,22,12,31,11.40
2018,04,22,12,32,11.40
2018,04,22,12,33,11.40
2018,04,22,12,34,11.40
2018,04,22,12,35,11.50
2018,04,22,12,36,11.50
2018,04,22,12,37,11.50
2018,04,22,12,38,11.50
2018,04,22,12,39,11.50
2018,04,22,12,40,11.60
2018,04,22,12,41,11.60
2018,04,22,12,42,11.60
2018,04,22,12,43,11.60
2018,04,22,12,44,11.70
2018,04,22,12,45,11.70
2018,04,22,12,46,11.70
2018,04,22,12,47,11.70
2018,04,22,12,48,11.80
2018,04,22,12,49,11.80
2018,04,22,12,50,11.80
2018,04,22,12,51,11.80
2018,04,22,12,52,11.80
2018,04,22,12,53,11.90
2018,04,22,12,54,11.90
2018,04,22,12,55,11.90
2018,04,22,12,56,11.90
2018,04,22,12,57,11.90
2018,04,22,12,58,11.90
2018,04,22,12,59,11.90
2018,04,22,13,00,12.00
2018,04,22,13,01,12.00
2018,04,22,13,02,12.00
2018,04,22,13,03,11.90
2018,04,22,13,04,11.90
2018,04,22,13,05,11.90
2018,04,22,13,06,11.90
2018,04,22,13,07,11.90
2018,04,22,13,08,11.80
2018,04,22,13,09,11.80
2018,04,22,13,10,11.70
2018,04,22,13,11,11.70
2018,04,22,13,12,11.70
2018,04,22,13,13,11.70
2018,04,22,13,14,11.70
2018,04,22,13,15,11.70
2018,04,22,13,16,11.80
2018,04,22,13,17,11.80
2018,04,22,13,18,11.80
2018,04,22,13,19,11.80
2018,04,22,13,20,11.80
2018,04,22,13,21,11.90
2018,04,22,13,22,11.90
2018,04,22,13,23,11.90
2018,04,22,13,24,11.90
2018,04,22,13,25,11.90
2018,04,22,13,26,12.00
2018,04,22,13,27,12.00
2018,04,22,13,28,12.00
2018,04,22,13,29,12.10
2018,04,22,13,30,12.00
2018,04,22,13,31,12.00
2018,04,22,13,32,12.00
2018,04,22,13,33,12.00
2018,04,22,13,34,12.00
2018,04,22,13,35,12.00
2018,04,22,13,36,12.00
2018,04,22,13,37,12.10
2018,04,22,13,38,12.10
2018,04,22,13,39,12.20
2018,04,22,13,40,12.20
2018,04,22,13,41,12.20
2018,04,22,13,42,12.30
2018,04,22,13,43,12.30
2018,04,22,13,44,12.30
2018,04,22,13,45,12.30
2018,04,22,13,46,12.40
2018,04,22,13,47,12.40
2018,04,22,13,48,12.40
2018,04,22,13,49,12.50
2018,04,22,13,50,12.50
2018,04,22,13,51,12.60
2018,04,22,13,52,12.60
2018,04,22,13,53,12.50
2018,04,22,13,54,12.50
2018,04,22,13,55,12.50
2018,04,22,13,56,12.50
2018,04,22,13,57,12.40
2018,04,22,13,58,12.40
2018,04,22,13,59,12.50
2018,04,22,14,00,12.50
2018,04,22,14,01,12.50
2018,04,22,14,02,12.60
2018,04,22,14,03,12.60
2018,04,22,14,04,12.60
2018,04,22,14,05,12.70
2018,04,22,14,06,12.70
2018,04,22,14,07,12.70
2018,04,22,14,08,12.70
2018,04,22,14,09,12.80
2018,04,22,14,10,12.80
2018,04,22,14,11,12.80
2018,04,22,14,12,12.80
2018,04,22,14,13,12.80
2018,04,22,14,14,12.80
2018,04,22,14,15,12.80
2018,04,22,14,16,12.80
2018,04,22,14,17,12.80
2018,04,22,14,18,12.80
2018,04,22,14,19,12.80
2018,04,22,14,20,12.80
2018,04,22,14,21,12.80
2018,04,22,14,22,12.80
2018,04,22,14,23,12.80
2018,04,22,14,24,12.80
2018,04,22,14,25,12.90
2018,04,22,14,26,12.90
2018,04,22,14,27,12.90
2018,04,22,14,28,12.90
2018,04,22,14,29,12.90
2018,04,22,14,30,13.00
2018,04,22,14,31,12.90
2018,04,22,14,32,13.00
2018,04,22,14,33,13.00
2018,04,22,14,34,12.90
2018,04,22,14,35,12.90
2018,04,22,14,36,12.90
2018,04,22,14,37,12.90
2018,04,22,14,38,12.90
2018,04,22,14,39,12.90
2018,04,22,14,40,13.00
2018,04,22,14,41,13.00
2018,04,22,14,42,13.10
2018,04,22,14,43,13.10
2018,04,22,14,44,13.10
2018,04,22,14,45,13.20
2018,04,22,14,46,13.20
2018,04,22,14,47,13.20
2018,04,22,14,48,13.20
2018,04,22,14,49,13.20
2018,04,22,14,50,13.20
2018,04,22,14,51,13.30
2018,04,22,14,52,13.30
2018,04,22,14,53,13.30
2018,04,22,14,54,13.30
2018,04,22,14,55,13.30
2018,04,22,14,56,13.30
2018,04,22,14,57,13.30
2018,04,22,14,58,13.30
2018,04,22,14,59,13.40
2018,04,22,15,00,13.30
2018,04,22,15,01,13.40
2018,04,22,15,02,13.40
2018,04,22,15,03,13.40
2018,04,22,15,04,13.40
2018,04,22,15,05,13.40
2018,04,22,15,06,13.40
2018,04,22,15,07,13.40
2018,04,22,15,08,13.40
2018,04,22,15,09,13.40
2018,04,22,15,10,13.40
2018,04,22,15,11,13.40
2018,04,22,15,12,13.40
2018,04,22,15,13,13.40
2018,04,22,15,14,13.50
2018,04,22,15,15,13.50
2018,04,22,15,16,13.50
2018,04,22,15,17,13.60
2018,04,22,15,18,13.50
2018,04,22,15,19,13.40
2018,04,22,15,20,13.40
2018,04,22,15,21,13.40
2018,04,22,15,22,13.40
2018,04,22,15,23,13.50
2018,04,22,15,24,13.40
2018,04,22,15,25,13.30
2018,04,22,15,26,13.20
2018,04,22,15,27,13.00
2018,04,22,15,28,12.80
2018,04,22,15,29,12.70
2018,04,22,15,30,12.60
2018,04,22,15,31,12.40
2018,04,22,15,32,12.30
2018,04,22,15,33,12.20
2018,04,22,15,34,12.10
2018,04,22,15,35,12.10
2018,04,22,15,36,12.10
2018,04,22,15,37,12.00
2018,04,22,15,38,12.00
2018,04,22,15,39,12.00
2018,04,22,15,40,12.00
2018,04,22,15,41,12.10
2018,04,22,15,42,12.10
2018,04,22,15,43,12.10
2018,04,22,15,44,12.10
2018,04,22,15,45,12.20
2018,04,22,15,46,12.20
2018,04,22,15,47,12.20
2018,04,22,15,48,12.20
2018,04,22,15,49,12.20
2018,04,22,15,50,12.20
2018,04,22,15,51,12.30
2018,04,22,15,52,12.30
2018,04,22,15,53,12.40
2018,04,22,15,54,12.40
2018,04,22,15,55,12.50
2018,04,22,15,56,12.60
2018,04,22,15,57,12.60
2018,04,22,15,58,12.60
2018,04,22,15,59,12.60
2018,04,22,16,00,12.50
2018,04,22,16,01,12.40
2018,04,22,16,02,12.40
2018,04,22,16,03,12.30
2018,04,22,16,04,12.30
2018,04,22,16,05,12.30
2018,04,22,16,06,12.20
2018,04,22,16,07,12.20
2018,04,22,16,08,12.10
2018,04,22,16,09,12.00
2018,04,22,16,10,11.90
2018,04,22,16,11,11.90
2018,04,22,16,12,11.80
2018,04,22,16,13,11.80
2018,04,22,16,14,11.70
2018,04,22,16,15,11.70
2018,04,22,16,16,11.70
2018,04,22,16,17,11.80
2018,04,22,16,18,11.80
2018,04,22,16,19,11.80
2018,04,22,16,20,11.90
2018,04,22,16,21,11.90
2018,04,22,16,22,11.90
2018,04,22,16,23,11.90
2018,04,22,16,24,11.90
2018,04,22,16,25,11.90
2018,04,22,16,26,11.90
2018,04,22,16,27,11.90
2018,04,22,16,28,11.80
2018,04,22,16,29,11.80
2018,04,22,16,30,11.80
2018,04,22,16,31,11.70
2018,04,22,16,32,11.70
2018,04,22,16,33,11.70
2018,04,22,16,34,11.60
2018,04,22,16,35,11.60
2018,04,22,16,36,11.60
2018,04,22,16,37,11.60
2018,04,22,16,38,11.50
2018,04,22,16,39,11.50
2018,04,22,16,40,11.40
2018,04,22,16,41,11.40
2018,04,22,16,42,11.40
2018,04,22,16,43,11.40
2018,04,22,16,44,11.40
2018,04,22,16,45,11.40
2018,04,22,16,46,11.30
2018,04,22,16,47,11.20
2018,04,22,16,48,11.20
2018,04,22,16,49,11.20
2018,04,22,16,50,11.20
2018,04,22,16,51,11.20
2018,04,22,16,52,11.20
2018,04,22,16,53,11.20
2018,04,22,16,54,11.20
2018,04,22,16,55,11.10
2018,04,22,16,56,11.10
2018,04,22,16,57,11.10
2018,04,22,16,58,11.10
2018,04,22,16,59,11.00
2018,04,22,17,00,11.00
2018,04,22,17,01,11.00
2018,04,22,17,02,11.00
2018,04,22,17,03,11.00
2018,04,22,17,04,11.10
2018,04,22,17,05,11.10
2018,04,22,17,06,11.10
2018,04,22,17,07,11.10
2018,04,22,17,08,11.10
2018,04,22,17,09,11.00
2018,04,22,17,10,11.00
2018,04,22,17,11,10.90
2018,04,22,17,12,10.90
2018,04,22,17,13,11.00
2018,04,22,17,14,11.00
2018,04,22,17,15,11.00
2018,04,22,17,16,10.90
2018,04,22,17,17,11.00
2018,04,22,17,18,11.00
2018,04,22,17,19,11.00
2018,04,22,17,20,11.10
2018,04,22,17,21,11.10
2018,04,22,17,22,11.10
2018,04,22,17,23,11.10
2018,04,22,17,24,11.10
2018,04,22,17,25,11.10
2018,04,22,17,26,11.10
2018,04,22,17,27,11.20
2018,04,22,17,28,11.20
2018,04,22,17,29,11.20
2018,04,22,17,30,11.20
2018,04,22,17,31,11.20
2018,04,22,17,32,11.20
2018,04,22,17,33,11.30
2018,04,22,17,34,11.30
2018,04,22,17,35,11.30
2018,04,22,17,36,11.30
2018,04,22,17,37,11.30
2018,04,22,17,38,11.30
2018,04,22,17,39,11.30
2018,04,22,17,40,11.30
2018,04,22,17,41,11.30
2018,04,22,17,42,11.30
2018,04,22,17,43,11.30
2018,04,22,17,44,11.30
2018,04,22,17,45,11.30
2018,04,22,17,46,11.30
2018,04,22,17,47,11.30
2018,04,22,17,48,11.30
2018,04,22,17,49,11.30
2018,04,22,17,50,11.30
2018,04,22,17,51,11.30
2018,04,22,17,52,11.30
2018,04,22,17,53,11.40
2018,04,22,17,54,11.40
2018,04,22,17,55,11.40
2018,04,22,17,56,11.40
2018,04,22,17,57,11.50
2018,04,22,17,58,11.50
2018,04,22,17,59,11.60
2018,04,22,18,00,11.60
2018,04,22,18,01,11.60
2018,04,22,18,02,11.70
2018,04,22,18,03,11.70
2018,04,22,18,04,11.70
2018,04,22,18,05,11.80
2018,04,22,18,06,11.80
2018,04,22,18,07,11.80
2018,04,22,18,08,11.80
2018,04,22,18,09,11.80
2018,04,22,18,10,11.80
2018,04,22,18,11,11.70
2018,04,22,18,12,11.70
2018,04,22,18,13,11.70
2018,04,22,18,14,11.70
2018,04,22,18,15,11.60
2018,04,22,18,16,11.60
2018,04,22,18,17,11.50
2018,04,22,18,18,11.50
2018,04,22,18,19,11.40
2018,04,22,18,20,11.40
2018,04,22,18,21,11.40
2018,04,22,18,22,11.50
2018,04,22,18,23,11.50
2018,04,22,18,24,11.50
2018,04,22,18,25,11.50
2018,04,22,18,26,11.50
2018,04,22,18,27,11.50
2018,04,22,18,28,11.50
2018,04,22,18,29,11.50
2018,04,22,18,30,11.50
2018,04,22,18,31,11.50
2018,04,22,18,32,11.50
2018,04,22,18,33,11.50
2018,04,22,18,34,11.50
2018,04,22,18,35,11.50
2018,04,22,18,36,11.40
2018,04,22,18,37,11.40
2018,04,22,18,38,11.40
2018,04,22,18,39,11.40
2018,04,22,18,40,11.40
2018,04,22,18,41,11.40
2018,04,22,18,42,11.40
2018,04,22,18,43,11.40
2018,04,22,18,44,11.40
2018,04,22,18,45,11.40
2018,04,22,18,46,11.40
2018,04,22,18,47,11.40
2018,04,22,18,48,11.40
2018,04,22,18,49,11.40
2018,04,22,18,50,11.40
2018,04,22,18,51,11.40
2018,04,22,18,52,11.50
2018,04,22,18,53,11.40
2018,04,22,18,54,11.40
2018,04,22,18,55,11.50
2018,04,22,18,56,11.50
2018,04,22,18,57,11.50
2018,04,22,18,58,11.60
2018,04,22,18,59,11.60
2018,04,22,19,00,11.60
2018,04,22,19,01,11.60
2018,04,22,19,02,11.60
2018,04,22,19,03,11.60
2018,04,22,19,04,11.60
2018,04,22,19,05,11.70
2018,04,22,19,06,11.70
2018,04,22,19,07,11.70
2018,04,22,19,08,11.80
2018,04,22,19,09,11.80
2018,04,22,19,10,11.80
2018,04,22,19,11,11.90
2018,04,22,19,12,11.90
2018,04,22,19,13,11.90
2018,04,22,19,14,11.90
2018,04,22,19,15,11.90
2018,04,22,19,16,11.90
2018,04,22,19,17,11.90
2018,04,22,19,18,11.90
2018,04,22,19,19,11.90
2018,04,22,19,20,12.00
2018,04,22,19,21,12.00
2018,04,22,19,22,12.00
2018,04,22,19,23,12.00
2018,04,22,19,24,11.90
2018,04,22,19,25,11.90
2018,04,22,19,26,11.90
2018,04,22,19,27,11.90
2018,04,22,19,28,11.90
2018,04,22,19,29,11.90
2018,04,22,19,30,11.90
2018,04,22,19,31,11.80
2018,04,22,19,32,11.80
2018,04,22,19,33,11.80
2018,04,22,19,34,11.80
2018,04,22,19,35,11.80
2018,04,22,19,36,11.80
2018,04,22,19,37,11.80
2018,04,22,19,38,11.80
2018,04,22,19,39,11.80
2018,04,22,19,40,11.80
2018,04,22,19,41,11.80
2018,04,22,19,42,11.80
2018,04,22,19,43,11.80
2018,04,22,19,44,11.80
2018,04,22,19,45,11.80
2018,04,22,19,46,11.70
2018,04,22,19,47,11.70
2018,04,22,19,48,11.70
2018,04,22,19,49,11.70
2018,04,22,19,50,11.70
2018,04,22,19,51,11.70
2018,04,22,19,52,11.70
2018,04,22,19,53,11.70
2018,04,22,19,54,11.70
2018,04,22,19,55,11.70
2018,04,22,19,56,11.70
2018,04,22,19,57,11.70
2018,04,22,19,58,11.70
2018,04,22,19,59,11.70
2018,04,22,20,00,11.70
2018,04,22,20,01,11.70
2018,04,22,20,02,11.60
2018,04,22,20,03,11.60
2018,04,22,20,04,11.60
2018,04,22,20,05,11.60
2018,04,22,20,06,11.50
2018,04,22,20,07,11.50
2018,04,22,20,08,11.50
2018,04,22,20,09,11.40
2018,04,22,20,10,11.40
2018,04,22,20,11,11.40
2018,04,22,20,12,11.40
2018,04,22,20,13,11.30
2018,04,22,20,14,11.30
2018,04,22,20,15,11.30
2018,04,22,20,16,11.30
2018,04,22,20,17,11.30
2018,04,22,20,18,11.20
2018,04,22,20,19,11.20
2018,04,22,20,20,11.20
2018,04,22,20,21,11.20
2018,04,22,20,22,11.20
2018,04,22,20,23,11.20
2018,04,22,20,24,11.10
2018,04,22,20,25,11.10
2018,04,22,20,26,11.10
2018,04,22,20,27,11.10
2018,04,22,20,28,11.10
2018,04,22,20,29,11.10
2018,04,22,20,30,11.00
2018,04,22,20,31,11.00
2018,04,22,20,32,11.00
2018,04,22,20,33,11.00
2018,04,22,20,34,11.00
2018,04,22,20,35,11.00
2018,04,22,20,36,10.90
2018,04,22,20,37,11.00
2018,04,22,20,38,10.90
2018,04,22,20,39,10.90
2018,04,22,20,40,10.90
2018,04,22,20,41,10.90
2018,04,22,20,42,10.90
2018,04,22,20,43,10.90
2018,04,22,20,44,10.90
2018,04,22,20,45,10.90
2018,04,22,20,46,10.90
2018,04,22,20,47,10.90
2018,04,22,20,48,10.90
2018,04,22,20,49,10.90
2018,04,22,20,50,10.90
2018,04,22,20,51,10.90
2018,04,22,20,52,10.90
2018,04,22,20,53,10.90
2018,04,22,20,54,10.90
2018,04,22,20,55,10.90
2018,04,22,20,56,10.90
2018,04,22,20,57,10.90
2018,04,22,20,58,10.80
2018,04,22,20,59,10.80
2018,04,22,21,00,10.80
2018,04,22,21,01,10.80
2018,04,22,21,02,10.80
2018,04,22,21,03,10.80
2018,04,22,21,04,10.80
2018,04,22,21,05,10.80
2018,04,22,21,06,10.80
2018,04,22,21,07,10.80
2018,04,22,21,08,10.80
2018,04,22,21,09,10.80
2018,04,22,21,10,10.80
2018,04,22,21,11,10.80
2018,04,22,21,12,10.80
2018,04,22,21,13,10.70
2018,04,22,21,14,10.70
2018,04,22,21,15,10.70
2018,04,22,21,16,10.70
2018,04,22,21,17,10.70
2018,04,22,21,18,10.70
2018,04,22,21,19,10.80
2018,04,22,21,20,10.80
2018,04,22,21,21,10.70
2018,04,22,21,22,10.70
2018,04,22,21,23,10.70
2018,04,22,21,24,10.60
2018,04,22,21,25,10.50
2018,04,22,21,26,10.50
2018,04,22,21,27,10.40
2018,04,22,21,28,10.40
2018,04,22,21,29,10.30
2018,04,22,21,30,10.30
2018,04,22,21,31,10.20
2018,04,22,21,32,10.20
2018,04,22,21,33,10.20
2018,04,22,21,34,10.20
2018,04,22,21,35,10.20
2018,04,22,21,36,10.10
2018,04,22,21,37,10.10
2018,04,22,21,38,10.10
2018,04,22,21,39,10.10
2018,04,22,21,40,10.10
2018,04,22,21,41,10.00
2018,04,22,21,42,10.00
2018,04,22,21,43,10.00
2018,04,22,21,44,10.00
2018,04,22,21,45,10.00
2018,04,22,21,46,10.00
2018,04,22,21,47,10.00
2018,04,22,21,48,10.00
2018,04,22,21,49,10.00
2018,04,22,21,50,10.00
2018,04,22,21,51,10.00
2018,04,22,21,52,10.00
2018,04,22,21,53,10.00
2018,04,22,21,54,10.00
2018,04,22,21,55,10.00
2018,04,22,21,56,10.00
2018,04,22,21,57,9.90
2018,04,22,21,58,9.90
2018,04,22,21,59,9.90
2018,04,22,22,00,9.80
2018,04,22,22,01,9.80
2018,04,22,22,02,9.80
2018,04,22,22,03,9.80
2018,04,22,22,04,9.80
2018,04,22,22,05,9.80
2018,04,22,22,06,9.80
2018,04,22,22,07,9.80
2018,04,22,22,08,9.80
2018,04,22,22,09,9.80
2018,04,22,22,10,9.70
2018,04,22,22,11,9.70
2018,04,22,22,12,9.70
2018,04,22,22,13,9.70
2018,04,22,22,14,9.70
2018,04,22,22,15,9.70
2018,04,22,22,16,9.60
2018,04,22,22,17,9.60
2018,04,22,22,18,9.60
2018,04,22,22,19,9.60
2018,04,22,22,20,9.60
2018,04,22,22,21,9.50
2018,04,22,22,22,9.50
2018,04,22,22,23,9.50